GSAT0211 (GALILEO 14)

Last updated on Sat Aug 30 2025 00:02:35 GMT+0000 (Coordinated Universal Time)

1 41549U 16030A 25240.67697168 .00000048 00000+0 00000+0 0 9996 2 41549 55.1933 229.7378 0003380 317.5799 42.3788 1.70473494 57681
UTC large
Height (km)
Speed (km/s)
/
Latitude / Longitude
Inclination (degrees)
Orbital Period (minutes)
Azimuth
Elevation
Range (km)
Doppler Factor

Next 0 passes for location: London (51.5072 / 0.1276)

Sorry there are no passes over London.